TimeMST,TemperatureF,Dew PointF,Humidity,Sea Level PressureIn,VisibilityMPH,Wind Direction,Wind SpeedMPH,Gust SpeedMPH,PrecipitationIn,Events,Conditions,WindDirDegrees,DateUTC
12:57 AM,26.1,24.1,92,30.06,10.0,Calm,Calm,-,N/A,,Clear,0,2013-02-07 07:57:00
1:57 AM,25.0,21.9,88,30.06,10.0,Calm,Calm,-,N/A,,Clear,0,2013-02-07 08:57:00
2:57 AM,23.0,19.9,88,30.06,10.0,Calm,Calm,-,N/A,,Clear,0,2013-02-07 09:57:00
3:57 AM,21.9,19.0,89,30.08,10.0,Calm,Calm,-,N/A,,Clear,0,2013-02-07 10:57:00
4:57 AM,21.0,18.0,88,30.09,10.0,Calm,Calm,-,N/A,,Clear,0,2013-02-07 11:57:00
5:57 AM,19.9,17.1,89,30.14,10.0,Calm,Calm,-,N/A,,Clear,0,2013-02-07 12:57:00
6:57 AM,19.9,17.1,89,30.17,10.0,Calm,Calm,-,N/A,,Clear,0,2013-02-07 13:57:00
7:57 AM,21.9,19.9,92,30.18,10.0,Calm,Calm,-,N/A,,Clear,0,2013-02-07 14:57:00
8:57 AM,30.0,26.1,85,30.17,10.0,Calm,Calm,-,N/A,,Clear,0,2013-02-07 15:57:00
9:57 AM,37.0,28.0,70,30.15,10.0,East,3.5,-,N/A,,Clear,90,2013-02-07 16:57:00
10:57 AM,41.0,30.0,65,30.14,10.0,Calm,Calm,-,N/A,,Clear,0,2013-02-07 17:57:00
11:57 AM,43.0,21.9,43,30.12,10.0,Variable,3.5,-,N/A,,Clear,0,2013-02-07 18:57:00
12:57 PM,45.0,21.0,39,30.06,10.0,Calm,Calm,-,N/A,,Clear,0,2013-02-07 19:57:00
1:57 PM,48.0,24.1,39,30.03,10.0,SSW,10.4,16.1,N/A,,Clear,200,2013-02-07 20:57:00
2:57 PM,46.9,23.0,39,30.03,10.0,SSW,6.9,17.3,N/A,,Clear,210,2013-02-07 21:57:00
3:57 PM,46.0,21.0,37,30.03,10.0,SSW,9.2,-,N/A,,Clear,210,2013-02-07 22:57:00
4:57 PM,45.0,21.9,40,30.04,10.0,SW,9.2,-,N/A,,Clear,220,2013-02-07 23:57:00
5:57 PM,42.1,23.0,47,30.05,10.0,South,5.8,-,N/A,,Clear,190,2013-02-08 00:57:00
6:57 PM,34.0,21.9,61,30.09,10.0,Calm,Calm,-,N/A,,Clear,0,2013-02-08 01:57:00
7:57 PM,28.9,21.0,72,30.10,10.0,Calm,Calm,-,N/A,,Clear,0,2013-02-08 02:57:00
8:57 PM,27.0,19.9,75,30.07,10.0,Calm,Calm,-,N/A,,Clear,0,2013-02-08 03:57:00
9:57 PM,27.0,21.9,81,30.01,10.0,Calm,Calm,-,N/A,,Clear,0,2013-02-08 04:57:00
10:57 PM,27.0,21.0,78,29.97,10.0,Calm,Calm,-,N/A,,Clear,0,2013-02-08 05:57:00
11:57 PM,27.0,21.9,81,29.94,10.0,Calm,Calm,-,N/A,,Clear,0,2013-02-08 06:57:00